Regional Weather Roundup
Issued by NWS

Home | Current Version | Previous Version | Graphics & Text | Print | Product List | Glossary On
Versions: 1 2 3 4 5 6 7 8 9 10 11 12 13 14 15 16 17 18 19 20 21 22 23 24 25 26 27 28 29 30 31 32 33 34 35 36 37 38 39 40 41 42 43 44 45 46 47 48 49 50
000
ASUS43 KOAX 291802
RWRNE

WEATHER ROUNDUP FOR NEBRASKA
NATIONAL WEATHER SERVICE OMAHA NE
100 PM CDT FRI MAY 29 2015

NOTES: SATELLITE DATA IS BEING USED TO AUGMENT CLOUD COVER ABOVE
       12000 FEET.
       "FAIR" INDICATES FEW OR NO CLOUDS BELOW 12,000 FEET WITH NO
       SIGNIFICANT WEATHER AND/OR OBSTRUCTIONS TO VISIBILITY.

  * THESE STATIONS DO NOT REPORT WEATHER SUCH AS RAIN...SNOW OR FOG.

NEZ001>004-019>022-054>056-291900-
NEBRASKA PANHANDLE

CITY           SKY/WX    TMP DP  RH WIND       PRES   REMARKS
SCOTTSBLUFF    LGT RAIN  54  53  97 W10       30.19R
6HR MIN TEMP:  52; 6HR MAX TEMP:  60; 6HR PCP:  0.30;

ALLIANCE       LGT RAIN  50  49  96 N16       30.18  FOG
6HR MIN TEMP:  48; 6HR MAX TEMP:  56; 6HR PCP:  0.68;

CHADRON        LGT RAIN  49  46  90 NE17G24   30.22R
6HR MIN TEMP:  49; 6HR MAX TEMP:  56; 6HR PCP:  0.07;

KIMBALL          N/A    N/A N/A N/A MISG        N/A
SIDNEY         PTSUNNY   63  52  67 N18G26    30.15F
6HR MIN TEMP:  49; 6HR MAX TEMP:  63; 6HR PCP:  0.01;

$$

NEZ057>060-069>072-079>082-291900-
SOUTHWEST NEBRASKA

CITY           SKY/WX    TMP DP  RH WIND       PRES   REMARKS
NORTH PLATTE   CLOUDY    67  55  65 N14       30.06S
6HR MIN TEMP:  52; 6HR MAX TEMP:  68;

IMPERIAL         N/A     68  54  60 NW12      30.08F
6HR MIN TEMP:  56; 6HR MAX TEMP:  70;

LEXINGTON      MOSUNNY   73  59  61 N14G21    30.01R
MCCOOK         PTSUNNY   73  55  53 N14       30.03F
6HR MIN TEMP:  53; 6HR MAX TEMP:  74;

$$

NEZ005>010-023>029-035>040-094-291900-
NORTH CENTRAL NEBRASKA

CITY           SKY/WX    TMP DP  RH WIND       PRES   REMARKS
VALENTINE      LGT RAIN  53  51  93 N18G29    30.12R FOG
6HR MIN TEMP:  53; 6HR MAX TEMP:  64; 6HR PCP: TRACE;

AINSWORTH      LGT RAIN  56  55  99 N22G29    30.08R
BROKEN BOW     PTSUNNY   72  56  57 N14G22    30.01R
6HR MIN TEMP:  58; 6HR MAX TEMP:  72;

ORD            PTSUNNY   68  57  68 N17G25    29.97R
6HR MIN TEMP:  58; 6HR MAX TEMP:  71;

$$

NEZ041-046>049-061>064-073>077-083>087-291900-
SOUTH CENTRAL NEBRASKA

CITY           SKY/WX    TMP DP  RH WIND       PRES   REMARKS
GRAND ISLAND   PTSUNNY   73  58  59 N12       29.97S
6HR MIN TEMP:  59; 6HR MAX TEMP:  74;

HASTINGS       PTSUNNY   73  59  61 NW9       29.98R
6HR MIN TEMP:  57; 6HR MAX TEMP:  73;

KEARNEY *      MOSUNNY   73  55  53 NW12G18   29.98S
$$

NEZ011>018-030>034-042>045-291900-
NORTHEAST NEBRASKA

CITY           SKY/WX    TMP DP  RH WIND       PRES   REMARKS
NORFOLK        PTSUNNY   75  62  64 NW9       29.91F
6HR MIN TEMP:  63; 6HR MAX TEMP:  75; 6HR PCP:  0.01;

BLAIR          CLOUDY    73  60  62 S10       29.92F
COLUMBUS *     CLOUDY    73  61  64 W7        29.94F
FREMONT        CLOUDY    75  59  57 CALM      29.92S
TEKAMAH        CLOUDY    75  63  66 SW10      29.90S
6HR MIN TEMP:  65; 6HR MAX TEMP:  76;

$$

NEZ050>053-065>068-078-088>093-291900-
SOUTHEAST NEBRASKA

CITY           SKY/WX    TMP DP  RH WIND       PRES   REMARKS
LINCOLN        CLOUDY    73  60  63 S7        29.94F
6HR MIN TEMP:  63; 6HR MAX TEMP:  74;

OMAHA EPPLEY   CLOUDY    75  60  59 SW9       29.92S
6HR MIN TEMP:  66; 6HR MAX TEMP:  75;

FALLS CITY     CLOUDY    70  65  84 S10       29.97R
6HR MIN TEMP:  66; 6HR MAX TEMP:  70; 6HR PCP:  0.05;

PLATTSMOUTH    CLOUDY    72  62  70 SW9       29.94S
$$

NEZ044-045-051>053-067-291900-
OMAHA AREA

CITY           SKY/WX    TMP DP  RH WIND       PRES   REMARKS
OMAHA EPPLEY   CLOUDY    75  60  59 SW9       29.92S
6HR MIN TEMP:  66; 6HR MAX TEMP:  75;

BLAIR          CLOUDY    73  60  62 S10       29.92F
FREMONT        CLOUDY    75  59  57 CALM      29.92S
OFFUTT AFB     CLOUDY    74  60  60 S12       29.92S
PLATTSMOUTH    CLOUDY    72  62  70 SW9       29.94S
$$


USA.gov is the U.S. government's official web portal to all federal, state and local government web resources and services.